CZ-6A DEB, 56601

Orbit data source: Space-Track

CZ-6A DEB, 56601 is space debris in SSO originally from a launch on Fri, 11 Nov 2022 UTC launched from the Taiyaun Space Center, China (TSC). Debris objects in space refer to the collection of defunct objects orbiting the Earth. Examples of debris include non-operational satellites, rocket bodies, and fragments generated from explosions, collisions, or faulty payload assembly.

Loading next visibility...
Identifier
56601, 2022-151ADZ
Orbit
SSO
Country
Flag of CNCN / PRC
Related business
Manufacturer
SAST
Mission
Spacecraft
Bus & Motor
Unknown
Mass
Unknown
Launch date (UTC)
2022-11-11 (4 years ago)
Launch vehicle
Unknown
Launch site
Taiyaun Space Center, China (TSC)
Object type
Payload
Rocket body
Debris
Shape & HBR
Unknown shape, 0.1 m
Radar Cross Section
Small (<0.1 m²)

Expand to show TLE details & history
Last TLE update: 7 hours ago

TLE from 7 hours ago
0 CZ-6A DEB
1 56601U 22151ADZ 26236.50955117  .00000355  00000-0  13248-3 0  9995
2 56601  98.6008 256.7867 0113380 199.3230 160.3639 14.34448696174464
Epoch: 2026-08-24T12:13Z
TLE epoch observation values (Epoch: 2026-08-24T12:13:45.221Z)
Latitude
-0.00001°
Longitude
100.55805°
Altitude
856.361 km
Speed
7.385 km/s
True Right ascension
17h 07m 08s
True Declination
0° 00' 00"
Sunlit
Object was in daylight at epoch
Visualization orbit readout
Latitude
Unknown
Longitude
Unknown
Altitude
Unknown
Speed
Unknown
Apparent Right ascension
Unknown
Apparent Declination
Unknown
Sunlit
N/A
Visualization observer readout
Local Sidereal Time
10:52:29
Azimuth
Unknown
Elevation
Unknown
Doppler factor
Unknown
Orbital elements
Apogee altitude
855.124 km
Perigee altitude
692.941 km
Semi-major axis
7,152.17 km
Eccentricity
0.01134
Inclination
98.6008°
RAAN
256.7867°
Arg. of periapsis
199.323°
True anomaly
160.79474°
Mean anomaly
160.3639°
Eccentric anomaly
160.57989°
Mean motion
3.58828 °/min
Orbital period
100.33 mins
BSTAR
0.00013248
Loading maneuver chart data...
Computing Atmospheric mass density...
Loading historical data...
Loading historical data...
Loading historical data...
Loading historical data...
Loading historical data...
Loading historical data...
Loading historical data...

Documentation

Showing up to 5 results
|